[[{"header":{"parameterUnit":"m.s-1","parameterCategory":2,"la1":30.2992,"la2":30.254,"lo1":-89.0895,"lo2":-89.0443,"dy":0.0025,"dx":0.0025,"nx":19,"ny":19,"refTime":"2026-03-09T03:00:00:Z","depth":"0","parameterNumber":2,"parameterNumberName":"U-component_of_CURRENTS"},"data":[0,0,0,0.3006,0.3006,0.2977,0.2976,0.2968,0.2969,0,0,0,0,0,0,0,0,0,0,0,0.3026,0.3026,0.3006,0.3006,0.2977,0.2976,0.2968,0.2969,0,0,0,0,0,0,0,0,0,0,0,0.3025,0.3026,0.3027,0.3006,0.2977,0.2976,0.2968,0.2978,0,0,0,0,0,0,0,0,0,0,0.3001,0.3023,0.3026,0.3027,0.3006,0.2977,0.2976,0.2978,0.2978,0.2997,0,0.3015,0,0.2998,0.2971,0.2971,0,0,0,0.2985,0.3024,0.3018,0.3027,0.3006,0.2977,0.2984,0.2977,0.2977,0.2996,0.3015,0.3014,0.2998,0.2971,0.2971,0.3175,0.3177,0,0,0.2987,0.3012,0.3019,0.3019,0.3029,0.2985,0.2983,0.2976,0.2989,0.3014,0.3013,0.2998,0.2971,0.2971,0.3173,0.3175,0,0,0,0.3005,0.3014,0.3007,0.302,0.3016,0.2985,0.2983,0.2989,0.2988,0.3013,0.2998,0.2971,0.2972,0.3171,0.3174,0.3322,0,0,0,0.3005,0.3025,0.3008,0.3021,0.3017,0.2998,0.2996,0.2989,0.2987,0.2998,0.2971,0.2972,0.3168,0.3172,0.3313,0.333,0,0,0,0.3021,0.3026,0.3033,0.3023,0.3019,0.2998,0.2995,0.2987,0.2979,0.2971,0.2972,0.3167,0.3172,0.3306,0.3318,0.3365,0,0,0,0.3032,0.3126,0.3034,0.314,0.3019,0.3101,0.2995,0.3039,0.3049,0.2971,0.3169,0.3173,0.3303,0.3311,0.3358,0.333,0.3357,0,0,0.317,0.3143,0.3209,0.3128,0.3225,0.3101,0.3232,0.3185,0.3128,0.3163,0.3167,0.3316,0.3317,0.3363,0.3605,0.3623,0,0,0,0.3267,0.3293,0.3316,0.3339,0.3353,0.3344,0.3309,0.3308,0.3336,0.3157,0.3372,0.3368,0.3391,0.3364,0.338,0.3187,0.3195,0.3195,0.3194,0.3429,0.3426,0.35,0.3492,0.3536,0.3537,0.3566,0.3557,0.3499,0.3555,0.3533,0.3723,0.3703,0.3713,0.3519,0.3608,0.3609,0.3609,0.361,0.3554,0.3563,0.3565,0.3621,0.3625,0.3704,0.3768,0.3758,0.3826,0.3739,0.3756,0.3577,0.3739,0.3525,0.362,0.3618,0.3617,0.3616,0.3615,0.357,0.3571,0.3591,0.3637,0.3697,0.3747,0.3819,0.3876,0.3914,0.397,0.3872,0.3868,0.3632,0.3961,0.3961,0.3962,0.3962,0.3962,0.3963,0.355,0.3575,0.358,0.364,0.3654,0.3711,0.3824,0.3889,0.3977,0.4007,0.4006,0.3695,0.3828,0.3759,0.3968,0.3967,0.3967,0.3966,0.3966,0.3523,0.3535,0.3543,0.3549,0.3589,0.3575,0.3725,0.3854,0.3962,0.4011,0.3827,0.4028,0.3952,0.3938,0.3872,0.4098,0.4098,0.4098,0.4098,0.348,0.3499,0.3465,0.3455,0.3473,0.35,0.3492,0.3639,0.376,0.3758,0.3776,0.3687,0.369,0.3591,0.3585,0.3508,0.3637,0.3636,0.3635,0.3425,0.3437,0.3376,0.339,0.3395,0.3374,0.3283,0.3305,0.3498,0.3595,0.3519,0.3539,0.3384,0.3404,0.3225,0.3232,0.3097,0,0]},{"header":{"parameterUnit":"m.s-1","parameterCategory":2,"la1":30.2992,"la2":30.254,"lo1":-89.0895,"lo2":-89.0443,"dy":0.0025,"dx":0.0025,"nx":19,"ny":19,"refTime":"2026-03-09T03:00:00:Z","depth":"0","parameterNumber":3,"parameterNumberName":"V-component_of_CURRENTS"},"data":[0,0,0,0.0005,0.0003,-0.0098,-0.0098,-0.022,-0.0221,0,0,0,0,0,0,0,0,0,0,0,0.005,0.005,0.0005,0.0003,-0.0098,-0.0098,-0.022,-0.0221,0,0,0,0,0,0,0,0,0,0,0,0.005,0.005,0.005,0.0003,-0.0098,-0.0098,-0.0219,-0.0148,0,0,0,0,0,0,0,0,0,0,-0.0053,-0.0003,0.005,0.005,0.0002,-0.0098,-0.0098,-0.0145,-0.0153,-0.0168,0,-0.0169,0,-0.0197,-0.0228,-0.0228,0,0,0,-0.0009,0.0003,-0.0027,0.005,0.0001,-0.0097,-0.0056,-0.0149,-0.0158,-0.0178,-0.0171,-0.0176,-0.0199,-0.0228,-0.0229,-0.01,-0.0098,0,0,-0.0004,0.0029,-0.0021,-0.0032,-0.0005,-0.0053,-0.0059,-0.0155,-0.0153,-0.0171,-0.0179,-0.0201,-0.0229,-0.023,-0.0102,-0.01,0,0,0,0.002,0.0034,0.0005,-0.0026,-0.0045,-0.0055,-0.0062,-0.0149,-0.0159,-0.018,-0.0202,-0.0229,-0.0231,-0.0105,-0.0101,0.0072,0,0,0,0.0023,0.0048,0.0008,0.0026,-0.0043,-0.0099,-0.0054,-0.0152,-0.0164,-0.0202,-0.023,-0.0232,-0.0107,-0.0103,0.0062,0.0118,0,0,0,0.0051,0.0051,0.0045,0.0028,-0.0012,-0.0098,-0.0114,-0.0156,-0.0177,-0.0228,-0.0232,-0.0109,-0.0104,0.0053,0.0104,0.0195,0,0,0,0.008,0.013,0.0046,0.0108,-0.0011,0.0041,-0.0114,-0.0113,-0.0139,-0.023,-0.0107,-0.0102,0.005,0.0095,0.0187,0.0317,0.0366,0,0,0.0169,0.0141,0.0185,0.0108,0.0181,0.0052,0.0153,0.0026,-0.0062,-0.0084,-0.0081,0.0065,0.0103,0.0193,0.0616,0.0656,0,0,0,0.0233,0.025,0.0267,0.0277,0.0279,0.0283,0.0184,0.0167,0.0144,-0.0054,0.0122,0.0141,0.0192,0.0256,0.0289,0.0145,-0.0078,-0.0078,-0.0079,0.0339,0.0346,0.0417,0.0426,0.0463,0.0445,0.0465,0.0424,0.0316,0.0364,0.0326,0.057,0.0647,0.0672,0.0525,0.0385,0.0386,0.0387,0.0387,0.0446,0.0482,0.0499,0.0565,0.0588,0.0654,0.0695,0.0648,0.07,0.0578,0.0618,0.049,0.0718,0.0548,0.0399,0.0397,0.0395,0.0394,0.0393,0.0482,0.0509,0.0535,0.0623,0.0703,0.0746,0.0857,0.0853,0.084,0.0892,0.0908,0.0905,0.071,0.0897,0.0898,0.0898,0.0899,0.09,0.09,0.0507,0.0544,0.0606,0.0684,0.0742,0.0838,0.0944,0.1021,0.1116,0.1112,0.1113,0.0818,0.0724,0.0652,0.0911,0.0909,0.0908,0.0907,0.0906,0.0577,0.0577,0.0677,0.0734,0.0875,0.1035,0.1109,0.134,0.1397,0.1489,0.1213,0.1232,0.1174,0.1148,0.1087,0.1442,0.1442,0.1442,0.1442,0.0612,0.0623,0.0758,0.0864,0.1001,0.1136,0.1464,0.1655,0.1599,0.1521,0.135,0.1254,0.1238,0.1174,0.1146,0.1081,0.1426,0.1426,0.1425,0.0668,0.07,0.0807,0.0909,0.1064,0.1286,0.1653,0.1987,0.1777,0.1399,0.113,0.1131,0.0952,0.0939,0.0798,0.0771,0.0647,0,0]}],[{"header":{"parameterUnit":"m.s-1","parameterCategory":2,"la1":30.2992,"la2":30.254,"lo1":-89.0895,"lo2":-89.0443,"dy":0.0025,"dx":0.0025,"nx":19,"ny":19,"refTime":"2026-03-09T03:00:00:Z","depth":"2","parameterNumber":2,"parameterNumberName":"U-component_of_CURRENTS"},"data":[0,0,0,0.2057,0.2059,0.2108,0.2108,0.213,0.213,0,0,0,0,0,0,0,0,0,0,0,0.2038,0.2039,0.2057,0.2059,0.2108,0.2108,0.213,0.213,0,0,0,0,0,0,0,0,0,0,0,0.2038,0.2038,0.2039,0.2059,0.2108,0.2108,0.213,0.21,0,0,0,0,0,0,0,0,0,0,0.2056,0.2058,0.2038,0.2039,0.206,0.2108,0.2108,0.2098,0.2101,0.21,0,0.2118,0,0.2131,0.2132,0.2132,0,0,0,0.2046,0.2056,0.2063,0.2039,0.206,0.2108,0.2082,0.21,0.2104,0.2103,0.2119,0.212,0.2132,0.2132,0.2132,0.2225,0.2226,0,0,0.2043,0.205,0.2061,0.2065,0.2087,0.2081,0.2084,0.2103,0.2115,0.2119,0.2121,0.2132,0.2132,0.2132,0.2224,0.2225,0,0,0,0.2044,0.2048,0.2055,0.2064,0.208,0.2083,0.2086,0.2114,0.2115,0.2121,0.2132,0.2132,0.2132,0.2223,0.2225,0.2271,0,0,0,0.2042,0.205,0.2054,0.2059,0.2081,0.2107,0.2097,0.2113,0.2116,0.2132,0.2132,0.2133,0.2222,0.2224,0.2268,0.2263,0,0,0,0.2033,0.2049,0.2057,0.2059,0.2086,0.2107,0.2109,0.2114,0.2124,0.2132,0.2133,0.2222,0.2224,0.2265,0.2259,0.2311,0,0,0,0.2033,0.2033,0.2058,0.2076,0.2086,0.2127,0.2109,0.2144,0.2156,0.2132,0.2223,0.2225,0.2264,0.2257,0.2309,0.2243,0.2251,0,0,0.2021,0.2032,0.2042,0.2065,0.2097,0.2118,0.2179,0.2188,0.2185,0.2209,0.2211,0.2269,0.2259,0.2311,0.2358,0.2361,0,0,0,0.2031,0.2036,0.2056,0.2086,0.2126,0.2178,0.2207,0.2233,0.2273,0.2205,0.2297,0.2288,0.232,0.2276,0.228,0.2234,0.2234,0.2234,0.2233,0.2006,0.203,0.2056,0.2098,0.2141,0.2226,0.2272,0.2313,0.2318,0.2358,0.2348,0.2444,0.24,0.2401,0.2386,0.2386,0.2386,0.2387,0.2387,0.195,0.1962,0.2034,0.2057,0.2152,0.2226,0.2326,0.2361,0.2445,0.2423,0.2452,0.2353,0.2408,0.2391,0.239,0.239,0.2389,0.2389,0.2388,0.1898,0.1912,0.1947,0.2011,0.213,0.2242,0.2339,0.2413,0.2464,0.2504,0.2478,0.2476,0.2452,0.2542,0.2543,0.2543,0.2543,0.2543,0.2543,0.182,0.1864,0.1895,0.1986,0.2063,0.2183,0.2358,0.2417,0.2491,0.2513,0.2513,0.2496,0.2491,0.2462,0.2547,0.2546,0.2546,0.2546,0.2545,0.1751,0.1801,0.1824,0.1876,0.2005,0.2058,0.2239,0.2363,0.2466,0.2474,0.2522,0.2521,0.2496,0.2492,0.2463,0.2544,0.2544,0.2544,0.2544,0.1726,0.1744,0.1787,0.1818,0.1877,0.1969,0.1994,0.21,0.2271,0.2323,0.2331,0.2267,0.2273,0.2231,0.2232,0.2196,0.2207,0.2207,0.2206,0.1706,0.172,0.1744,0.1768,0.1796,0.1844,0.18,0.1776,0.1962,0.2187,0.2221,0.2531,0.2459,0.2459,0.2412,0.2408,0.2357,0,0]},{"header":{"parameterUnit":"m.s-1","parameterCategory":2,"la1":30.2992,"la2":30.254,"lo1":-89.0895,"lo2":-89.0443,"dy":0.0025,"dx":0.0025,"nx":19,"ny":19,"refTime":"2026-03-09T03:00:00:Z","depth":"2","parameterNumber":3,"parameterNumberName":"V-component_of_CURRENTS"},"data":[0,0,0,0.0241,0.0242,0.0259,0.0259,0.0262,0.0262,0,0,0,0,0,0,0,0,0,0,0,0.0231,0.0231,0.0241,0.0242,0.0259,0.0259,0.0262,0.0262,0,0,0,0,0,0,0,0,0,0,0,0.0231,0.0231,0.0231,0.0242,0.0259,0.0259,0.0262,0.0252,0,0,0,0,0,0,0,0,0,0,0.0237,0.0227,0.0231,0.0231,0.0242,0.0259,0.0259,0.0252,0.0253,0.0249,0,0.0253,0,0.0261,0.0262,0.0262,0,0,0,0.0237,0.0226,0.0238,0.0231,0.0242,0.0259,0.025,0.0253,0.0254,0.025,0.0253,0.0254,0.0261,0.0262,0.0262,0.026,0.026,0,0,0.0236,0.0227,0.0238,0.0239,0.0248,0.025,0.0251,0.0253,0.025,0.0253,0.0254,0.0261,0.0262,0.0262,0.026,0.026,0,0,0,0.0237,0.0226,0.0238,0.0238,0.0245,0.025,0.0252,0.025,0.0256,0.0254,0.0261,0.0262,0.0262,0.026,0.026,0.0316,0,0,0,0.0236,0.0227,0.0238,0.0231,0.0245,0.0249,0.0247,0.0256,0.0256,0.0261,0.0262,0.0262,0.026,0.026,0.0315,0.0375,0,0,0,0.023,0.0226,0.023,0.023,0.0241,0.025,0.0256,0.0256,0.0261,0.0262,0.0262,0.026,0.026,0.0314,0.0371,0.0422,0,0,0,0.0217,0.0242,0.0229,0.0254,0.0241,0.0275,0.0256,0.0271,0.0274,0.0262,0.026,0.026,0.0313,0.0369,0.0419,0.0481,0.0499,0,0,0.0248,0.0245,0.0261,0.0251,0.0296,0.0272,0.0306,0.0297,0.0269,0.0257,0.0257,0.0315,0.0371,0.0421,0.0477,0.0495,0,0,0,0.0271,0.0291,0.0298,0.0318,0.0325,0.0352,0.0332,0.0314,0.03,0.0271,0.0298,0.0331,0.0362,0.0392,0.0406,0.026,0.026,0.026,0.026,0.0322,0.0329,0.0369,0.0388,0.0405,0.0401,0.0407,0.0378,0.0333,0.0325,0.0363,0.0425,0.0455,0.0467,0.0327,0.0327,0.0327,0.0327,0.0327,0.0412,0.0442,0.0445,0.0491,0.0494,0.0515,0.0498,0.0463,0.0455,0.0397,0.0422,0.0432,0.0486,0.0332,0.0331,0.033,0.033,0.033,0.0329,0.0462,0.048,0.0499,0.0562,0.0604,0.0605,0.0674,0.062,0.0541,0.0554,0.0584,0.0583,0.0492,0.0561,0.0562,0.0562,0.0562,0.0563,0.0563,0.051,0.0532,0.0589,0.0647,0.0695,0.0766,0.0786,0.0797,0.0757,0.0678,0.0677,0.0504,0.0497,0.0505,0.057,0.0569,0.0568,0.0567,0.0567,0.0576,0.0579,0.068,0.0738,0.0879,0.1009,0.1016,0.104,0.1003,0.0987,0.0741,0.0735,0.0733,0.0721,0.0735,0.0856,0.0856,0.0856,0.0856,0.0609,0.0622,0.0766,0.0896,0.1046,0.1142,0.1283,0.1217,0.1061,0.0925,0.0922,0.0864,0.0852,0.0852,0.0837,0.085,0.1002,0.1002,0.1002,0.0648,0.0696,0.0803,0.0943,0.1133,0.1292,0.1401,0.1304,0.1052,0.1003,0.0902,0.0874,0.0777,0.0763,0.0748,0.073,0.0745,0,0]}],[{"header":{"parameterUnit":"m.s-1","parameterCategory":2,"la1":30.2992,"la2":30.254,"lo1":-89.0895,"lo2":-89.0443,"dy":0.0025,"dx":0.0025,"nx":19,"ny":19,"refTime":"2026-03-09T03:00:00:Z","depth":"4","parameterNumber":2,"parameterNumberName":"U-component_of_CURRENTS"},"data":[0,0,0,0.1172,0.1174,0.1302,0.1302,0.1416,0.1416,0,0,0,0,0,0,0,0,0,0,0,0.1134,0.1135,0.1171,0.1175,0.1302,0.1302,0.1415,0.1416,0,0,0,0,0,0,0,0,0,0,0,0.1133,0.1135,0.1136,0.1175,0.1302,0.1302,0.1415,0.1331,0,0,0,0,0,0,0,0,0,0,0.1214,0.1188,0.1134,0.1136,0.1176,0.1302,0.1302,0.1328,0.1337,0.1344,0,0.1375,0,0.1396,0.1423,0.1423,0,0,0,0.1174,0.1181,0.1213,0.1136,0.1177,0.1301,0.1244,0.1333,0.1343,0.1355,0.1376,0.1381,0.1397,0.1424,0.1424,0.1542,0.1543,0,0,0.1167,0.1156,0.1207,0.122,0.1224,0.124,0.1248,0.134,0.1355,0.1377,0.1384,0.1399,0.1424,0.1425,0.1542,0.1543,0,0,0,0.1147,0.1151,0.1183,0.1215,0.1241,0.1244,0.1253,0.1352,0.1362,0.1385,0.1401,0.1425,0.1426,0.1541,0.1542,0.1588,0,0,0,0.1143,0.114,0.118,0.1174,0.124,0.1305,0.1263,0.1356,0.1367,0.14,0.1425,0.1427,0.1541,0.1542,0.1586,0.1576,0,0,0,0.1126,0.1138,0.1156,0.1174,0.1228,0.1304,0.1321,0.1359,0.1376,0.1423,0.1427,0.154,0.1542,0.1583,0.1573,0.1625,0,0,0,0.1103,0.112,0.1157,0.1189,0.1227,0.1297,0.132,0.1386,0.1428,0.1425,0.1541,0.1542,0.1583,0.1571,0.1622,0.1414,0,0,0,0.11,0.112,0.1137,0.1173,0.1228,0.1279,0.1357,0.1427,0.145,0.1505,0.1509,0.1587,0.1573,0.1624,0.1496,0,0,0,0,0.112,0.1133,0.1159,0.1207,0.1268,0.1347,0.1415,0.1459,0.1546,0.1483,0.1601,0.1591,0.1622,0.1495,0.1549,0.1549,0.1548,0.1548,0.1548,0.1075,0.1119,0.1155,0.1223,0.1286,0.1401,0.1471,0.1546,0.1571,0.1625,0.1641,0.1723,0.1591,0.167,0.1671,0.1671,0.1671,0.1671,0.1671,0.1054,0.1071,0.1155,0.1207,0.1311,0.1397,0.1539,0.1593,0.1703,0.1696,0.1726,0.1566,0.1676,0.1675,0.1674,0.1674,0.1673,0.1673,0.1673,0.1012,0.1025,0.1079,0.1171,0.1283,0.1415,0.1527,0.1643,0.1726,0.1771,0.1661,0.1755,0.1738,0.1812,0.1812,0.1812,0.1813,0.1813,0.1813,0.0936,0.099,0.1027,0.1139,0.1208,0.134,0.1533,0.1604,0.1723,0.1673,0.1795,0.177,0.1765,0.1746,0.1816,0.1815,0.1815,0.1815,0.1815,0.0864,0.0906,0.0949,0.1006,0.1142,0.1226,0.1429,0.1533,0.1599,0.1603,0.1627,0.1636,0.1597,0.1597,0.157,0.1591,0.1588,0.1586,0,0.0806,0.0831,0.0873,0.0923,0.0996,0.1144,0.1202,0.1322,0.1436,0.1384,0.1588,0.1611,0.1617,0.1567,0.1564,0.1528,0,0,0,0.0754,0.078,0.0782,0.0846,0.0912,0.1039,0.1209,0.1208,0.1421,0.143,0.1524,0.1541,0.1696,0.1826,0.1787,0.1781,0.1749,0,0]},{"header":{"parameterUnit":"m.s-1","parameterCategory":2,"la1":30.2992,"la2":30.254,"lo1":-89.0895,"lo2":-89.0443,"dy":0.0025,"dx":0.0025,"nx":19,"ny":19,"refTime":"2026-03-09T03:00:00:Z","depth":"4","parameterNumber":3,"parameterNumberName":"V-component_of_CURRENTS"},"data":[0,0,0,0.0287,0.0288,0.032,0.032,0.033,0.033,0,0,0,0,0,0,0,0,0,0,0,0.0272,0.0272,0.0287,0.0288,0.032,0.032,0.033,0.033,0,0,0,0,0,0,0,0,0,0,0,0.0272,0.0272,0.0272,0.0288,0.032,0.032,0.033,0.0313,0,0,0,0,0,0,0,0,0,0,0.0285,0.0277,0.0272,0.0272,0.0288,0.032,0.032,0.0312,0.0314,0.0307,0,0.0313,0,0.0325,0.0331,0.0331,0,0,0,0.0285,0.0275,0.0285,0.0272,0.0288,0.032,0.0305,0.0313,0.0315,0.0309,0.0314,0.0314,0.0325,0.0331,0.0331,0.0322,0.0322,0,0,0.0283,0.0276,0.0284,0.0286,0.0297,0.0304,0.0306,0.0315,0.0315,0.0314,0.0315,0.0325,0.0331,0.0331,0.0322,0.0322,0,0,0,0.028,0.0275,0.0285,0.0286,0.0296,0.0305,0.0307,0.0315,0.0319,0.0315,0.0325,0.0331,0.0331,0.0322,0.0322,0.0351,0,0,0,0.0279,0.0273,0.0284,0.028,0.0296,0.031,0.0307,0.0318,0.032,0.0325,0.0331,0.0331,0.0323,0.0322,0.035,0.0399,0,0,0,0.027,0.0272,0.0277,0.028,0.0296,0.0311,0.0315,0.0319,0.0326,0.0331,0.0331,0.0323,0.0322,0.035,0.0397,0.041,0,0,0,0.0261,0.0278,0.0276,0.0294,0.0296,0.0321,0.0315,0.033,0.0336,0.0331,0.0323,0.0322,0.035,0.0395,0.0409,0.0426,0,0,0,0.0281,0.0281,0.0291,0.029,0.0325,0.0316,0.0338,0.034,0.0327,0.0317,0.0317,0.0351,0.0397,0.041,0.0409,0,0,0,0,0.0295,0.0311,0.0316,0.0337,0.0344,0.0366,0.0359,0.0343,0.0335,0.0329,0.0337,0.0365,0.0373,0.0377,0.0321,0.0321,0.0321,0.0321,0.0321,0.0332,0.0338,0.0371,0.0387,0.0397,0.0396,0.0397,0.0374,0.0348,0.0339,0.0377,0.0396,0.0399,0.0343,0.0344,0.0344,0.0344,0.0344,0.0344,0.0388,0.0412,0.0425,0.0463,0.0471,0.0488,0.0453,0.0427,0.0411,0.0383,0.0387,0.0393,0.0346,0.0346,0.0346,0.0345,0.0345,0.0345,0.0345,0.0421,0.0435,0.0465,0.0523,0.0566,0.056,0.0584,0.0538,0.047,0.0472,0.0469,0.0424,0.0436,0.0467,0.0467,0.0468,0.0468,0.0468,0.0468,0.0442,0.0472,0.053,0.0589,0.0637,0.0682,0.0671,0.065,0.0579,0.0531,0.0493,0.0438,0.0434,0.0443,0.0472,0.0472,0.0471,0.0471,0.047,0.047,0.0495,0.0577,0.0636,0.0748,0.0781,0.0779,0.0715,0.0691,0.0635,0.0545,0.054,0.054,0.0533,0.0546,0.0607,0.0607,0.0608,0,0.0487,0.0505,0.062,0.0717,0.0809,0.084,0.083,0.0792,0.0686,0.0676,0.0676,0.0578,0.0572,0.0574,0.0568,0.0585,0,0,0,0.0507,0.0543,0.0621,0.0728,0.0837,0.0838,0.0828,0.0793,0.0709,0.0674,0.0617,0.0615,0.0561,0.0484,0.0472,0.0467,0.0481,0,0]}]]